| time (UTC) | temp F | wind direction | speed MPH | gust MPH | rain 1hr in | rain 24hr in | rain mn in | humidity % | barometer mb |
| 20260508033141 | 44 | 235 | 1.0 | 2.0 | 0.00 | 0.86 | 0.00 | 98 | 1002.5 |
| 20260508031538 | 44 | 235 | 1.0 | 3.0 | 0.00 | 0.86 | 0.00 | 98 | 1002.4 |
| 20260508030035 | 43 | 235 | 2.0 | 4.0 | 0.00 | 0.86 | 0.86 | 98 | 1002.6 |
| 20260508024541 | 43 | 235 | 1.0 | 4.0 | 0.00 | 0.86 | 0.86 | 98 | 1002.4 |
| 20260508023037 | 43 | 235 | 1.0 | 4.0 | 0.00 | 0.86 | 0.86 | 98 | 1002.3 |
| 20260508021535 | 43 | 235 | 1.0 | 4.0 | 0.00 | 0.86 | 0.86 | 98 | 1002.3 |
| 20260508020033 | 43 | 255 | 2.0 | 7.0 | 0.00 | 0.86 | 0.86 | 98 | 1002.4 |
| 20260508014534 | 44 | 247 | 4.0 | 8.0 | 0.00 | 0.86 | 0.86 | 98 | 1002.8 |
| 20260508013031 | 44 | 262 | 1.0 | 8.0 | 0.00 | 0.86 | 0.86 | 98 | 1002.4 |
| 20260508011541 | 44 | 229 | 3.0 | 8.0 | 0.00 | 0.86 | 0.86 | 98 | 1002.4 |
| 20260508010032 | 44 | 231 | 4.0 | 10.0 | 0.00 | 0.86 | 0.86 | 98 | 1002.8 |
| 20260508004525 | 45 | 228 | 6.0 | 9.0 | 0.00 | 0.86 | 0.86 | 98 | 1003.2 |
| 20260508003034 | 45 | 229 | 5.0 | 10.0 | 0.00 | 0.86 | 0.86 | 97 | 1002.7 |
| 20260508001522 | 45 | 200 | 3.0 | 10.0 | 0.01 | 0.86 | 0.86 | 98 | 1003.1 |
| 20260508000021 | 45 | 200 | 5.0 | 11.0 | 0.01 | 0.86 | 0.86 | 98 | 1003.2 |
| 20260507234520 | 46 | 193 | 7.0 | 14.0 | 0.01 | 0.86 | 0.86 | 97 | 1003.0 |
| 20260507233020 | 46 | 214 | 6.0 | 10.0 | 0.01 | 0.86 | 0.86 | 98 | 1003.7 |
| 20260507231518 | 46 | 198 | 7.0 | 12.0 | 0.00 | 0.85 | 0.85 | 97 | 1003.6 |
| 20260507230017 | 46 | 188 | 5.0 | 14.0 | 0.00 | 0.85 | 0.85 | 97 | 1003.7 |
| 20260507224518 | 46 | 208 | 3.0 | 11.0 | 0.00 | 0.85 | 0.85 | 97 | 1003.5 |
| 20260507223017 | 46 | 182 | 6.0 | 14.0 | 0.01 | 0.85 | 0.85 | 97 | 1003.6 |
| 20260507221517 | 47 | 192 | 8.0 | 14.0 | 0.02 | 0.85 | 0.85 | 97 | 1003.8 |
| 20260507220015 | 46 | 162 | 7.0 | 15.0 | 0.09 | 0.85 | 0.85 | 97 | 1003.7 |
| 20260507214514 | 46 | 204 | 9.0 | 18.0 | 0.17 | 0.85 | 0.85 | 97 | 1003.5 |
| 20260507213015 | 46 | 185 | 7.0 | 16.0 | 0.23 | 0.84 | 0.84 | 97 | 1003.9 |
| 20260507211510 | 46 | 180 | 6.0 | 11.0 | 0.30 | 0.83 | 0.83 | 97 | 1004.3 |
| 20260507210008 | 46 | 187 | 9.0 | 15.0 | 0.35 | 0.76 | 0.76 | 97 | 1004.6 |
| 20260507204507 | 46 | 229 | 7.0 | 14.0 | 0.42 | 0.68 | 0.68 | 97 | 1005.1 |
| 20260507203005 | 47 | 234 | 10.0 | 17.0 | 0.43 | 0.61 | 0.61 | 97 | 1005.8 |
| 20260507201504 | 46 | 148 | 9.0 | 17.0 | 0.40 | 0.53 | 0.53 | 97 | 1005.2 |
| 20260507200002 | 46 | 158 | 9.0 | 16.0 | 0.33 | 0.42 | 0.42 | 97 | 1005.6 |
| 20260507194601 | 46 | 188 | 10.0 | 18.0 | 0.21 | 0.26 | 0.26 | 97 | 1006.0 |
| 20260507193110 | 46 | 187 | 10.0 | 23.0 | 0.16 | 0.19 | 0.19 | 97 | 1005.8 |
| 20260507191600 | 47 | 164 | 8.0 | 16.0 | 0.12 | 0.13 | 0.13 | 97 | 1006.2 |
| 20260507184555 | 47 | 195 | 8.0 | 23.0 | 0.05 | 0.05 | 0.05 | 97 | 1006.5 |
| 20260507183058 | 47 | 170 | 13.0 | 24.0 | 0.03 | 0.03 | 0.03 | 97 | 1006.4 |
| 20260507181552 | 46 | 152 | 14.0 | 24.0 | 0.01 | 0.01 | 0.01 | 97 | 1006.4 |
| 20260507180053 | 46 | 152 | 12.0 | 20.0 | 0.00 | 0.00 | 0.00 | 96 | 1006.6 |
| 20260507174548 | 46 | 193 | 14.0 | 24.0 | 0.00 | 0.00 | 0.00 | 96 | 1006.8 |
| 20260507173052 | 46 | 195 | 10.0 | 25.0 | 0.00 | 0.00 | 0.00 | 95 | 1007.6 |
| 20260507171544 | 48 | 146 | 15.0 | 25.0 | 0.00 | 0.00 | 0.00 | 95 | 1007.1 |
| 20260507170040 | 48 | 179 | 12.0 | 23.0 | 0.00 | 0.00 | 0.00 | 95 | 1007.9 |
| 20260507164539 | 48 | 166 | 9.0 | 19.0 | 0.00 | 0.00 | 0.00 | 95 | 1008.0 |
| 20260507163036 | 49 | 169 | 12.0 | 25.0 | 0.00 | 0.00 | 0.00 | 95 | 1008.5 |
| 20260507161533 | 49 | 248 | 7.0 | 21.0 | 0.00 | 0.00 | 0.00 | 96 | 1009.0 |
| 20260507160034 | 48 | 141 | 9.0 | 21.0 | 0.00 | 0.00 | 0.00 | 95 | 1009.3 |
| 20260507154532 | 49 | 168 | 8.0 | 16.0 | 0.00 | 0.00 | 0.00 | 96 | 1009.5 |
| 20260507153028 | 49 | 137 | 9.0 | 14.0 | 0.00 | 0.00 | 0.00 | 96 | 1009.9 |
| 20260507151527 | 48 | 220 | 12.0 | 22.0 | 0.00 | 0.00 | 0.00 | 96 | 1010.4 |
| 20260507150027 | 48 | 180 | 9.0 | 17.0 | 0.00 | 0.00 | 0.00 | 96 | 1010.4 |
| 20260507144524 | 48 | 191 | 10.0 | 22.0 | 0.00 | 0.00 | 0.00 | 96 | 1010.7 |
| 20260507143021 | 49 | 103 | 10.0 | 21.0 | 0.00 | 0.00 | 0.00 | 96 | 1011.3 |
| 20260507141521 | 50 | 185 | 10.0 | 21.0 | 0.00 | 0.00 | 0.00 | 96 | 1011.6 |
| 20260507140021 | 49 | 168 | 9.0 | 21.0 | 0.00 | 0.00 | 0.00 | 96 | 1011.5 |
| 20260507134521 | 49 | 175 | 14.0 | 22.0 | 0.00 | 0.00 | 0.00 | 96 | 1011.9 |
| 20260507133019 | 48 | 195 | 11.0 | 20.0 | 0.00 | 0.00 | 0.00 | 97 | 1011.7 |
| 20260507131519 | 47 | 187 | 10.0 | 20.0 | 0.00 | 0.00 | 0.00 | 96 | 1011.7 |
| 20260507130013 | 46 | 185 | 10.0 | 21.0 | 0.00 | 0.00 | 0.00 | 96 | 1011.8 |
| 20260507124511 | 47 | 166 | 12.0 | 19.0 | 0.00 | 0.00 | 0.00 | 96 | 1012.2 |
| 20260507123010 | 48 | 177 | 7.0 | 19.0 | 0.00 | 0.00 | 0.00 | 96 | 1013.0 |
| 20260507121506 | 47 | 150 | 8.0 | 16.0 | 0.00 | 0.00 | 0.00 | 96 | 1013.1 |
| 20260507120005 | 47 | 163 | 9.0 | 17.0 | 0.00 | 0.00 | 0.00 | 96 | 1014.0 |
| 20260507114504 | 47 | 171 | 10.0 | 18.0 | 0.00 | 0.00 | 0.00 | 96 | 1013.6 |
| 20260507113004 | 47 | 171 | 9.0 | 17.0 | 0.00 | 0.00 | 0.00 | 96 | 1014.3 |
| 20260507111503 | 47 | 177 | 11.0 | 19.0 | 0.00 | 0.00 | 0.00 | 96 | 1013.9 |
| 20260507110002 | 47 | 165 | 8.0 | 19.0 | 0.00 | 0.00 | 0.00 | 96 | 1013.8 |
| 20260507104559 | 47 | 137 | 6.0 | 16.0 | 0.00 | 0.00 | 0.00 | 96 | 1014.3 |
| 20260507103059 | 46 | 198 | 7.0 | 13.0 | 0.00 | 0.00 | 0.00 | 96 | 1014.7 |
| 20260507101556 | 47 | 182 | 5.0 | 15.0 | 0.00 | 0.00 | 0.00 | 96 | 1014.0 |
| 20260507100058 | 46 | 155 | 6.0 | 12.0 | 0.00 | 0.00 | 0.00 | 96 | 1014.3 |
| 20260507094653 | 47 | 202 | 6.0 | 17.0 | 0.00 | 0.00 | 0.00 | 96 | 1014.2 |
| 20260507093050 | 47 | 155 | 7.0 | 14.0 | 0.00 | 0.00 | 0.00 | 96 | 1014.3 |
| 20260507091548 | 46 | 231 | 6.0 | 12.0 | 0.00 | 0.00 | 0.00 | 96 | 1014.9 |
| 20260507090048 | 47 | 214 | 6.0 | 14.0 | 0.00 | 0.00 | 0.00 | 96 | 1014.8 |
| 20260507084550 | 47 | 203 | 6.0 | 15.0 | 0.00 | 0.00 | 0.00 | 96 | 1014.6 |
| 20260507083047 | 47 | 181 | 7.0 | 16.0 | 0.00 | 0.00 | 0.00 | 95 | 1014.6 |
| 20260507081537 | 48 | 186 | 7.0 | 13.0 | 0.00 | 0.00 | 0.00 | 95 | 1014.9 |
| 20260507080035 | 49 | 202 | 7.0 | 17.0 | 0.00 | 0.00 | 0.00 | 95 | 1015.1 |
| 20260507074537 | 49 | 220 | 7.0 | 13.0 | 0.00 | 0.00 | 0.00 | 94 | 1015.2 |
| 20260507073031 | 50 | 197 | 7.0 | 11.0 | 0.00 | 0.00 | 0.00 | 94 | 1015.3 |
| 20260507071548 | 49 | 191 | 6.0 | 12.0 | 0.00 | 0.00 | 0.00 | 94 | 1015.7 |
| 20260507070030 | 48 | 185 | 4.0 | 10.0 | 0.00 | 0.00 | 0.00 | 95 | 1016.0 |
| 20260507064527 | 48 | 173 | 7.0 | 12.0 | 0.00 | 0.00 | 0.00 | 95 | 1015.9 |
| 20260507063027 | 48 | 181 | 8.0 | 14.0 | 0.00 | 0.00 | 0.00 | 95 | 1016.0 |
| 20260507061522 | 48 | 176 | 6.0 | 17.0 | 0.00 | 0.00 | 0.00 | 95 | 1016.3 |
| 20260507060020 | 48 | 217 | 7.0 | 15.0 | 0.00 | 0.00 | 0.00 | 95 | 1016.3 |
| 20260507054518 | 49 | 184 | 7.0 | 12.0 | 0.00 | 0.00 | 0.00 | 95 | 1016.5 |
| 20260507053016 | 49 | 218 | 5.0 | 10.0 | 0.00 | 0.00 | 0.00 | 96 | 1016.8 |
| 20260507051513 | 49 | 220 | 7.0 | 13.0 | 0.00 | 0.00 | 0.00 | 96 | 1017.0 |
| 20260507050012 | 49 | 199 | 8.0 | 12.0 | 0.00 | 0.00 | 0.00 | 96 | 1017.2 |
| 20260507044510 | 49 | 212 | 8.0 | 15.0 | 0.00 | 0.00 | 0.00 | 96 | 1017.3 |
| 20260507043009 | 49 | 192 | 8.0 | 12.0 | 0.00 | 0.00 | 0.00 | 96 | 1017.4 |
| 20260507041506 | 49 | 227 | 7.0 | 15.0 | 0.00 | 0.00 | 0.00 | 96 | 1017.7 |
| 20260507040004 | 49 | 193 | 8.0 | 13.0 | 0.00 | 0.00 | 0.00 | 96 | 1018.0 |
| 20260507034504 | 49 | 195 | 6.0 | 12.0 | 0.00 | 0.00 | 0.00 | 96 | 1018.2 |